Find STARLINK-37566

NORAD ID: 68908 Constellation: starlink operational
LEOCIRCULARRETROGRADE

Live Position

Loading 3D Globe...

About STARLINK-37566

Description loading...

Upcoming Passes

Passes for default location (London). Set your location on the main map for personalized predictions.

Altitude History

Loading altitude history...

Two-Line Element Set

1 68908U 26097P 26125.50001156 -.02118030 12709-2 -52295-2 0 9992
2 68908 97.2872 320.4933 0001456 86.6410 143.2914 15.96139866 2069
Epoch: May 5, 2026 • Age: 6 hours